Погода в Нагорном

Россия / Новосибирская область     55°25′41″N   78°16′27″E
темп.,
°C
ветер,
м/с
пор.,
м/с
влажн.,
%
обл.,
%
осадки,
мм/ч
давл.,
гПа
погр.,
м
19 июня, сб
сб1901:00+15ююв239399 1.1 99938
04:00+11сз6897100 0.6 999393
07:00+7ссз61096100 0.7 1001523
10:00+8сз61094100 0.3 1002620
13:00+9сз7985100 0.3 1005829
16:00+8сз81080100 0.1 10061039
19:00+9ссз6117666 0.1 10071160
22:00+9сз477543 0.0 1008730
20 июня, вс
вс2001:00+5сз33955 0.1 100946
04:00+4з349431 0.0 100956
07:00+7зюз36848 0.0 1009191
10:00+12зюз34645 0.0 1009595
13:00+15юз455587 0.3 10081513
16:00+16юз565689 0.4 10061527
19:00+16ююз5957100 0.4 10041902
22:00+13ююв7146098 0.0 1003504
21 июня, пн
пн2101:00+12ююв61258100 0.0 1001589
04:00+9юв51275100 0.6 1000444
07:00+8в51189100 1.9 1000381
10:00+8всв71494100 1.8 1000734
13:00+9всв91496100 5.3 1001816
16:00+9св61095100 2.4 1003612
19:00+9ссв51095100 3.4 1005533
22:00+9ссв4896100 0.8 1006410
22 июня, вт
вт2201:00+9с4897100 2.4 1006367
04:00+9с51097100 0.5 1006414
07:00+9с51097100 0.8 1008528
10:00+9ссз51096100 0.4 1009514
13:00+12ссв598392 0.6 1010853
16:00+16с466583 1.7 10101470
19:00+15ссз556984 2.3 10111163
22:00+11сз3690100 1.1 1012142
23 июня, ср
ср2301:00+9ссз349194 1.2 101259
04:00+9ссз3492100 0.0 101379
07:00+9сз3595100 0.3 1013142
10:00+11сз2386100 0.3 1013223
13:00+12сз2380100 1.1 1013337
16:00+15ссв4468100 0.4 10121066
19:00+14ссв4577100 1.3 1012719
22:00+12ссв3584100 0.9 101386